Theta_e
333 334 332 327 325 323 322 320 320 315 314 314 312 311 310 309 310 308 308 307 306 306
333 331 329 324 322 321 320 320 313 313 312 312 311 310 309 308 307 307 307 306 306 305
322 322 322 320 318 318 316 311 311 311 309 308 307 307 306 305 305 306 306 307 305 305
318 316 316 316 315 313 311 311 310 308 306 305 304 303 303 303 305 304 304 305 305 306
313 314 314 311 311 311 309 308 306 305 304 303 302 300 301 301 302 303 304 305 306 308
310 309 308 309 310 309 306 304 303 303 301 300 300 299 299 300 301 303 307 311 312 313
307 308 308 309 309 308 306 303 302 301 300 300 298 298 298 299 300 302 309 312 314 313
307 308 308 308 308 307 306 303 302 300 298 297 298 298 297 298 299 304 308 312 313 311
306 306 305 305 305 305 303 301 299 297 296 295 298 297 299 301 298 304 308 308 306 307
306 305 305 305 304 303 301 299 297 295 294 293 293 296 296 300 297 299 301 305 302 302
304 303 303 304 304 303 300 299 296 295 294 292 293 295 295 297 299 302 304 306 302 302
303 302 302 302 304 306 302 298 296 294 291 289 289 294 294 293 295 297 301 303 302 300
302 301 301 301 305 306 303 298 295 292 290 293 288 292 293 292 291 293 296 300 300 300
299 299 300 300 302 303 302 299 293 291 290 289 290 289 292 292 289 289 291 295 297 298
Wind_Speed
4 5 9 5 7 7 3 1 3 4 5 6 7 6 6 5 5 4 5 7 5 1
12 9 6 8 11 7 4 3 4 6 7 7 7 8 8 6 5 5 5 5 4 3
13 16 12 10 8 8 5 5 8 8 8 9 9 8 7 5 5 6 4 3 5 4
12 13 13 9 7 7 8 9 10 9 9 10 9 8 7 5 6 5 4 4 5 5
13 11 10 8 7 10 11 10 10 10 10 9 8 7 6 5 4 3 4 5 6 4
11 11 11 10 10 11 11 10 9 10 9 8 6 5 4 3 3 4 4 5 4 3
10 11 11 10 10 10 9 9 9 8 6 5 4 5 5 5 5 5 5 4 3 4
10 10 10 10 10 9 9 7 7 7 6 6 7 6 5 5 5 5 5 5 4 4
10 10 9 9 8 8 7 7 9 8 7 7 6 14 12 7 5 5 4 4 5 5
9 8 7 7 7 7 7 7 7 7 7 6 7 15 14 10 4 4 4 4 5 5
8 8 7 7 6 7 6 7 5 6 6 6 7 15 15 10 5 4 4 5 6 5
7 8 7 7 6 6 7 5 6 5 6 7 6 14 14 8 7 5 5 5 5 5
7 7 7 5 6 4 6 6 5 5 5 10 6 10 13 11 4 6 5 5 6 8
7 7 6 6 4 6 6 6 5 5 5 6 6 6 12 12 4 3 4 3 5 6
Wind_Direction
121 103 99 125 111 86 72 51 182 127 90 76 69 68 67 61 55 48 48 41 34 355
98 75 110 108 100 121 153 194 97 78 77 64 65 69 63 58 49 43 47 36 26 12
112 120 107 101 127 140 135 111 89 85 77 66 59 56 54 43 25 40 13 11 19 10
97 100 105 119 140 125 101 95 88 80 71 59 52 41 47 38 31 33 3 1 22 15
96 100 101 100 86 84 83 75 75 70 63 56 47 37 34 30 20 24 13 4 17 354
94 98 90 89 83 84 86 76 72 72 62 52 41 29 11 24 8 5 356 353 328 353
79 86 89 89 85 85 83 82 71 64 64 58 41 30 6 10 8 358 357 322 331 59
82 84 86 86 82 78 83 90 93 77 53 35 35 20 3 9 358 350 339 348 8 52
85 80 77 78 84 87 87 80 71 54 49 33 28 9 15 22 8 346 358 2 21 16
90 86 86 96 94 91 88 81 65 50 42 33 14 8 12 9 12 11 353 33 12 358
98 93 83 84 99 92 78 80 76 58 36 38 20 14 8 0 13 12 14 16 14 359
88 84 81 80 101 100 106 90 79 69 48 40 19 16 16 12 22 1 13 7 7 3
65 73 75 87 97 95 96 100 93 74 49 39 19 7 19 24 13 9 356 353 7 359
57 63 70 70 62 94 102 100 84 71 40 31 12 350 15 15 18 0 328 357 13 356